DAL2227 KJFK-KATL

Flight info

Callsign DAL2227
Flight time N/A
Altitude 34000
Route RBV Q430 BYRDD J48 MOL FLASK OZZZI1
Aircraft A320/M-SDE3FGHIRWY/LB1

Departure

Time 2026-05-06 18:01
Airport John F. Kennedy International Airport (KJFK)

Arrival

Time N/A
Airport Hartsfield Jackson Atlanta International Airport (KATL)
Time Latitude Longitude Altitude Speed Heading
2026-05-06 17:37 40.64930 -73.79356 26 ft 0 kts 331°
2026-05-06 17:39 40.64909 -73.79341 23 ft 4 kts 337°
2026-05-06 17:40 40.64884 -73.79333 25 ft 4 kts
2026-05-06 17:40 40.64862 -73.79346 24 ft 4 kts 53°
2026-05-06 17:40 40.64855 -73.79358 25 ft 1 kts 60°
2026-05-06 17:40 40.64855 -73.79359 25 ft 0 kts 60°
2026-05-06 17:42 40.64856 -73.79358 25 ft 1 kts 60°
2026-05-06 17:42 40.64868 -73.79330 25 ft 7 kts 60°
2026-05-06 17:42 40.64900 -73.79254 23 ft 12 kts 60°
2026-05-06 17:43 40.64942 -73.79156 23 ft 11 kts 60°
2026-05-06 17:43 40.64971 -73.79089 25 ft 6 kts 60°
2026-05-06 17:43 40.64985 -73.79056 23 ft 2 kts 60°
2026-05-06 17:43 40.64995 -73.79033 25 ft 5 kts 61°
2026-05-06 17:44 40.65021 -73.78969 25 ft 11 kts 61°
2026-05-06 17:44 40.65070 -73.78916 23 ft 7 kts
2026-05-06 17:44 40.65117 -73.78911 23 ft 6 kts 18°
2026-05-06 17:44 40.65136 -73.78876 26 ft 4 kts 74°
2026-05-06 17:45 40.65139 -73.78826 23 ft 7 kts 86°
2026-05-06 17:45 40.65158 -73.78727 23 ft 12 kts 66°
2026-05-06 17:45 40.65188 -73.78653 27 ft 4 kts 60°
2026-05-06 17:45 40.65193 -73.78642 27 ft 3 kts 60°
2026-05-06 17:46 40.65224 -73.78571 27 ft 12 kts 60°
2026-05-06 17:46 40.65262 -73.78474 23 ft 10 kts 73°
2026-05-06 17:46 40.65265 -73.78398 26 ft 8 kts 98°
2026-05-06 17:46 40.65243 -73.78329 27 ft 10 kts 119°
2026-05-06 17:47 40.65194 -73.78217 25 ft 18 kts 120°
2026-05-06 17:47 40.65128 -73.78075 23 ft 18 kts 122°
2026-05-06 17:47 40.65064 -73.77935 22 ft 18 kts 121°
2026-05-06 17:47 40.64999 -73.77788 19 ft 18 kts 120°
2026-05-06 17:48 40.64938 -73.77655 21 ft 16 kts 121°
2026-05-06 17:48 40.64881 -73.77531 20 ft 15 kts 121°
2026-05-06 17:48 40.64840 -73.77441 22 ft 14 kts 121°
2026-05-06 17:48 40.64804 -73.77362 23 ft 12 kts 121°
2026-05-06 17:49 40.64763 -73.77271 23 ft 12 kts 119°
2026-05-06 17:49 40.64769 -73.77176 24 ft 10 kts 56°
2026-05-06 17:49 40.64797 -73.77126 24 ft 5 kts 53°
2026-05-06 17:49 40.64801 -73.77117 23 ft 0 kts 53°
2026-05-06 17:51 40.64802 -73.77116 23 ft 0 kts 53°
2026-05-06 17:51 40.64806 -73.77109 23 ft 3 kts 53°
2026-05-06 17:51 40.64838 -73.77053 19 ft 14 kts 53°
2026-05-06 17:51 40.64896 -73.76944 21 ft 13 kts 55°
2026-05-06 17:52 40.64935 -73.76870 21 ft 8 kts 55°
2026-05-06 17:52 40.64982 -73.76786 22 ft 13 kts 54°
2026-05-06 17:52 40.64971 -73.76695 22 ft 10 kts 122°
2026-05-06 17:52 40.64978 -73.76621 21 ft 8 kts 37°
2026-05-06 17:53 40.65017 -73.76590 23 ft 6 kts 32°
2026-05-06 17:53 40.65048 -73.76565 21 ft 4 kts 31°
2026-05-06 17:53 40.65059 -73.76556 23 ft 0 kts 31°
2026-05-06 17:54 40.65063 -73.76553 22 ft 1 kts 30°
2026-05-06 17:54 40.65068 -73.76549 21 ft 0 kts 28°
2026-05-06 17:54 40.65069 -73.76549 21 ft 0 kts 28°
2026-05-06 17:55 40.65071 -73.76548 21 ft 1 kts 28°
2026-05-06 17:55 40.65073 -73.76546 21 ft 1 kts 28°
2026-05-06 17:55 40.65079 -73.76542 21 ft 0 kts 27°
2026-05-06 17:58 40.65095 -73.76526 8 ft 7 kts 46°
2026-05-06 17:59 40.65087 -73.76446 23 ft 12 kts 120°
2026-05-06 17:59 40.65029 -73.76359 25 ft 13 kts 174°
2026-05-06 17:59 40.65000 -73.76373 23 ft 0 kts 210°
2026-05-06 18:00 40.64997 -73.76375 23 ft 1 kts 210°
2026-05-06 18:00 40.64950 -73.76411 23 ft 34 kts 210°
2026-05-06 18:00 40.64500 -73.76762 20 ft 113 kts 211°
2026-05-06 18:00 40.63649 -73.77422 118 ft 161 kts 204°
2026-05-06 18:01 40.62662 -73.78194 926 ft 166 kts 211°
2026-05-06 18:01 40.61683 -73.78984 1930 ft 166 kts 212°
2026-05-06 18:01 40.60673 -73.79807 2431 ft 179 kts 214°
2026-05-06 18:01 40.59555 -73.80719 2758 ft 199 kts 213°
2026-05-06 18:02 40.58745 -73.81377 2962 ft 215 kts 213°
2026-05-06 18:02 40.57413 -73.82454 3520 ft 231 kts 213°
2026-05-06 18:02 40.56034 -73.83562 4409 ft 233 kts 214°
2026-05-06 18:02 40.54654 -73.84675 5362 ft 232 kts 216°
2026-05-06 18:03 40.53510 -73.86161 6271 ft 234 kts 233°
2026-05-06 18:03 40.52584 -73.87922 7115 ft 235 kts 234°
2026-05-06 18:03 40.51654 -73.89705 7975 ft 237 kts 234°
2026-05-06 18:03 40.50721 -73.91498 8822 ft 239 kts 234°
2026-05-06 18:04 40.49778 -73.93310 9678 ft 241 kts 234°
2026-05-06 18:04 40.48825 -73.95141 10337 ft 249 kts 235°
2026-05-06 18:04 40.47803 -73.97105 10566 ft 271 kts 235°
2026-05-06 18:04 40.46714 -73.99194 11058 ft 281 kts 235°
2026-05-06 18:05 40.45596 -74.01332 11727 ft 287 kts 236°
2026-05-06 18:05 40.44459 -74.03508 12398 ft 291 kts 236°
2026-05-06 18:05 40.43307 -74.05714 13044 ft 296 kts 237°
2026-05-06 18:05 40.42135 -74.07960 13694 ft 300 kts 237°
2026-05-06 18:06 40.40945 -74.10233 14321 ft 303 kts 237°
2026-05-06 18:06 40.39741 -74.12532 14945 ft 306 kts 237°
2026-05-06 18:06 40.38530 -74.14834 15580 ft 308 kts 237°
2026-05-06 18:06 40.37311 -74.17154 16210 ft 310 kts 237°
2026-05-06 18:07 40.36079 -74.19498 16768 ft 314 kts 237°
2026-05-06 18:07 40.34840 -74.21854 16941 ft 314 kts 237°
2026-05-06 18:07 40.33616 -74.24179 16985 ft 313 kts 237°
2026-05-06 18:07 40.32380 -74.26527 16984 ft 313 kts 237°
2026-05-06 18:08 40.31146 -74.28872 16981 ft 313 kts 237°
2026-05-06 18:08 40.29907 -74.31226 16996 ft 313 kts 237°
2026-05-06 18:08 40.28663 -74.33591 17542 ft 316 kts 237°
2026-05-06 18:08 40.27408 -74.35967 18157 ft 319 kts 238°
2026-05-06 18:09 40.26135 -74.38370 18703 ft 321 kts 238°
2026-05-06 18:09 40.24856 -74.40786 19260 ft 323 kts 238°
2026-05-06 18:09 40.23573 -74.43212 19793 ft 325 kts 238°
2026-05-06 18:09 40.22279 -74.45653 20324 ft 327 kts 238°
2026-05-06 18:10 40.21059 -74.48159 20845 ft 327 kts 245°
2026-05-06 18:10 40.20244 -74.50932 21375 ft 327 kts 256°
2026-05-06 18:10 40.19891 -74.53844 21893 ft 330 kts 263°
2026-05-06 18:10 40.19665 -74.56839 22435 ft 332 kts 263°
2026-05-06 18:11 40.19435 -74.59852 23005 ft 335 kts 263°
2026-05-06 18:11 40.19200 -74.62896 23580 ft 337 kts 263°
2026-05-06 18:11 40.18961 -74.65943 24050 ft 338 kts 263°
2026-05-06 18:11 40.18719 -74.69012 24504 ft 339 kts 263°
2026-05-06 18:12 40.18476 -74.72086 24960 ft 340 kts 263°
2026-05-06 18:12 40.18231 -74.75164 25385 ft 341 kts 264°
2026-05-06 18:12 40.17983 -74.78260 25801 ft 342 kts 264°
2026-05-06 18:12 40.17732 -74.81363 26208 ft 343 kts 264°
2026-05-06 18:13 40.17482 -74.84467 26619 ft 344 kts 264°
2026-05-06 18:13 40.17228 -74.87586 27048 ft 345 kts 264°
2026-05-06 18:13 40.16975 -74.90708 27463 ft 347 kts 264°
2026-05-06 18:13 40.16722 -74.93856 27848 ft 348 kts 264°
2026-05-06 18:14 40.16469 -74.97003 28228 ft 349 kts 264°
2026-05-06 18:14 40.16212 -75.00163 28613 ft 350 kts 264°
2026-05-06 18:14 40.15951 -75.03333 28955 ft 351 kts 265°
2026-05-06 18:14 40.15687 -75.06509 29290 ft 352 kts 265°
2026-05-06 18:15 40.15423 -75.09695 29703 ft 351 kts 265°
2026-05-06 18:15 40.15160 -75.12880 30049 ft 352 kts 265°
2026-05-06 18:15 40.14896 -75.16061 30332 ft 352 kts 265°
2026-05-06 18:15 40.14631 -75.19212 30609 ft 353 kts 265°
2026-05-06 18:16 40.14362 -75.22410 30875 ft 354 kts 265°
2026-05-06 18:16 40.14092 -75.25606 31140 ft 354 kts 265°
2026-05-06 18:16 40.13822 -75.28815 31394 ft 355 kts 265°
2026-05-06 18:16 40.13549 -75.32030 31639 ft 356 kts 265°
2026-05-06 18:17 40.13275 -75.35246 31879 ft 357 kts 265°
2026-05-06 18:17 40.13000 -75.38479 32027 ft 359 kts 265°
2026-05-06 18:17 40.12724 -75.41739 32158 ft 362 kts 265°
2026-05-06 18:17 40.12447 -75.45015 32324 ft 363 kts 265°
2026-05-06 18:18 40.12167 -75.48308 32450 ft 364 kts 265°
2026-05-06 18:18 40.11885 -75.51597 32591 ft 364 kts 265°
2026-05-06 18:18 40.11600 -75.54884 32761 ft 364 kts 265°
2026-05-06 18:18 40.11312 -75.58167 32957 ft 363 kts 265°
2026-05-06 18:19 40.11025 -75.61440 33151 ft 362 kts 265°
2026-05-06 18:19 40.10738 -75.64701 33323 ft 361 kts 265°
2026-05-06 18:19 40.10457 -75.67906 33491 ft 360 kts 265°
2026-05-06 18:19 40.10172 -75.71147 33668 ft 359 kts 265°
2026-05-06 18:20 40.09884 -75.74383 33832 ft 359 kts 265°
2026-05-06 18:20 40.09596 -75.77614 33882 ft 358 kts 265°
2026-05-06 18:20 40.08218 -75.83838 33877 ft 366 kts 245°
2026-05-06 18:21 40.05396 -75.89448 33879 ft 369 kts 244°
2026-05-06 18:21 40.02551 -75.95044 33873 ft 371 kts 244°
2026-05-06 18:22 39.99701 -76.00643 33874 ft 371 kts 244°
2026-05-06 18:22 39.96842 -76.06256 33876 ft 371 kts 244°
2026-05-06 18:23 39.94001 -76.11836 33874 ft 371 kts 244°
2026-05-06 18:23 39.91137 -76.17441 33902 ft 371 kts 244°
2026-05-06 18:24 39.88281 -76.23017 33895 ft 370 kts 244°
2026-05-06 18:24 39.85429 -76.28586 33890 ft 369 kts 244°
2026-05-06 18:25 39.82580 -76.34140 33889 ft 369 kts 244°
2026-05-06 18:25 39.79725 -76.39696 33878 ft 369 kts 244°
2026-05-06 18:26 39.76867 -76.45228 33879 ft 368 kts 244°
2026-05-06 18:26 39.74016 -76.50752 33906 ft 368 kts 244°
2026-05-06 18:27 39.71168 -76.56260 33897 ft 367 kts 244°
2026-05-06 18:27 39.68325 -76.61744 33855 ft 366 kts 244°
2026-05-06 18:28 39.65484 -76.67230 33855 ft 366 kts 244°
2026-05-06 18:28 39.62636 -76.72710 33857 ft 367 kts 244°
2026-05-06 18:29 39.59778 -76.78190 33868 ft 367 kts 244°
2026-05-06 18:29 39.56939 -76.83625 33877 ft 367 kts 244°
2026-05-06 18:30 39.54081 -76.89098 33886 ft 366 kts 244°
2026-05-06 18:30 39.51229 -76.94555 33843 ft 365 kts 244°
2026-05-06 18:31 39.47876 -76.99610 33848 ft 383 kts 230°
2026-05-06 18:31 39.43731 -77.03970 33857 ft 384 kts 230°
2026-05-06 18:32 39.39577 -77.08323 33870 ft 384 kts 230°
2026-05-06 18:32 39.35425 -77.12674 33888 ft 384 kts 230°
2026-05-06 18:33 39.31276 -77.17033 33850 ft 384 kts 230°
2026-05-06 18:33 39.27116 -77.21390 33863 ft 384 kts 230°
2026-05-06 18:34 39.22961 -77.25728 33878 ft 384 kts 230°
2026-05-06 18:34 39.18805 -77.30067 33882 ft 384 kts 230°
2026-05-06 18:35 39.14648 -77.34400 33878 ft 384 kts 230°
2026-05-06 18:35 39.10505 -77.38721 33852 ft 384 kts 229°
2026-05-06 18:36 39.06364 -77.43026 33872 ft 384 kts 229°
2026-05-06 18:36 39.02199 -77.47342 33866 ft 384 kts 229°
2026-05-06 18:37 38.98743 -77.50918 33877 ft 384 kts 229°
2026-05-06 18:37 38.93879 -77.55950 33882 ft 384 kts 229°
2026-05-06 18:38 38.89712 -77.60259 33844 ft 384 kts 228°
2026-05-06 18:38 38.85542 -77.64565 33866 ft 385 kts 228°
2026-05-06 18:39 38.81382 -77.68845 33866 ft 386 kts 228°
2026-05-06 18:40 38.75087 -77.75310 33873 ft 386 kts 228°
2026-05-06 18:40 38.70898 -77.79616 33850 ft 386 kts 227°
2026-05-06 18:41 38.66691 -77.83925 33866 ft 388 kts 227°
2026-05-06 18:41 38.62877 -77.88657 33874 ft 376 kts 239°
2026-05-06 18:42 38.59738 -77.94022 33877 ft 377 kts 239°
2026-05-06 18:42 38.56591 -77.99395 33870 ft 377 kts 239°
2026-05-06 18:43 38.53439 -78.04762 33875 ft 378 kts 239°
2026-05-06 18:43 38.50290 -78.10101 33854 ft 379 kts 239°
2026-05-06 18:44 38.47622 -78.14612 33854 ft 381 kts 239°
2026-05-06 18:44 38.43904 -78.20894 33858 ft 382 kts 239°
2026-05-06 18:45 38.40698 -78.26315 33859 ft 383 kts 239°
2026-05-06 18:45 38.38029 -78.30827 33861 ft 383 kts 239°
2026-05-06 18:46 38.34809 -78.36248 33877 ft 384 kts 239°